Location: Casilda
(33.0440°S, 61.1680°W)
Time: 04:17:43
(UTC-03:00)

ISS - Visible Passes

Search period start: 01 December 2021 00:00
Search period end: 11 December 2021 00:00
Orbit: 417 x 423 km, 51.6° (Epoch: 01 December)

Date Brightness Start Highest point End Pass type
(mag) Time Alt. Az. Time Alt. Az. Time Alt. Az.
01 Dec -1.2 02:58:44 21° S 02:58:44 21° S 03:00:15 10° SSE visible
02 Dec -0.3 02:13:06 11° SE 02:13:06 11° SE 02:13:18 10° SE visible
03 Dec -0.7 03:00:22 12° SSW 03:00:22 12° SSW 03:01:31 10° S visible
04 Dec -0.3 02:14:38 12° S 02:14:38 12° S 02:15:03 10° SSE visible
10 Dec -0.2 23:56:23 12° SSW 23:56:23 12° SSW 23:57:09 10° S visible
